Location: Unspecified
(0.0000°N, 0.0000°E)
Time: 21:53:45
(UTC+00:00)

Transit 2A - Pass Details

Date: 03 June 2024
Orbit: 592 x 959 km, 66.7° (Epoch: 24 June)

Event Time Altitude Azimuth Distance (km) Brightness Sun altitude
Rises 05:05:24 0° 7° (N) 3,613 9.9 -12.2°
Reaches altitude 10° 05:08:37 10° 23° (NNE) 2,680 9.5 -11.5°
Maximum altitude 05:13:13 21° 70° (ENE) 1,991 9.3 -10.4°
Drops below altitude 10° 05:17:44 10° 116° (ESE) 2,641 9.4 -9.4°
Sets 05:20:51 0° 132° (SE) 3,546 9.8 -8.6°
